Fort Denison Observation History
Time Wind Speed Temp Pressure Rel. Hum Rain
04/07:30am W 13-16 kts n/a n/a n/a n/a
04/07:00am W 11-13 kts n/a n/a n/a n/a
04/06:30am W 11-14 kts n/a n/a n/a n/a
04/06:00am W 13-16 kts n/a n/a n/a n/a
04/05:30am W 12-20 kts n/a n/a n/a n/a
04/05:00am W 13-16 kts n/a n/a n/a n/a
04/04:30am W 12-15 kts n/a n/a n/a n/a
04/04:00am W 12-16 kts n/a n/a n/a n/a
04/03:30am W 11-17 kts n/a n/a n/a n/a
04/03:00am W 10-18 kts n/a n/a n/a n/a
04/02:30am WSW 9-14 kts n/a n/a n/a n/a
04/02:00am WSW 8-13 kts n/a n/a n/a n/a
04/01:30am WSW 10-17 kts n/a n/a n/a n/a
04/01:00am WSW 11-17 kts n/a n/a n/a n/a
04/12:30am SW 11-19 kts n/a n/a n/a n/a
04/12:00am WSW 12-21 kts n/a n/a n/a n/a
Time Wind Speed Temp Pressure Rel. Hum Rain
03/11:30pm SW 10-17 kts n/a n/a n/a n/a
03/11:00pm SW 11-18 kts n/a n/a n/a n/a
03/10:30pm SW 8-17 kts n/a n/a n/a n/a
03/10:00pm SW 12-21 kts n/a n/a n/a n/a
03/09:30pm SSW 12-20 kts n/a n/a n/a n/a
03/09:00pm SSW 14-22 kts n/a n/a n/a n/a
03/08:30pm S 13-20 kts n/a n/a n/a n/a
03/08:00pm S 9-15 kts n/a n/a n/a n/a
03/07:30pm S 12-17 kts n/a n/a n/a n/a
03/07:00pm S 9-15 kts n/a n/a n/a n/a
03/06:30pm S 10-17 kts n/a n/a n/a n/a
03/06:00pm S 9-13 kts n/a n/a n/a n/a
03/05:30pm S 10-16 kts n/a n/a n/a n/a
03/05:00pm S 9-17 kts n/a n/a n/a n/a
03/04:30pm S 11-19 kts n/a n/a n/a n/a
03/04:00pm S 11-21 kts n/a n/a n/a n/a
03/03:30pm S 13-19 kts n/a n/a n/a n/a
03/03:00pm S 14-23 kts n/a n/a n/a n/a
03/02:30pm S 12-19 kts n/a n/a n/a n/a
03/02:00pm S 12-22 kts n/a n/a n/a n/a
03/01:30pm S 13-24 kts n/a n/a n/a n/a
03/01:00pm SSW 14-21 kts n/a n/a n/a n/a
03/12:30pm S 11-18 kts n/a n/a n/a n/a
03/12:00pm SSW 10-19 kts n/a n/a n/a n/a
03/11:30am SSW 12-19 kts n/a n/a n/a n/a
03/11:00am WSW 10-19 kts n/a n/a n/a n/a
03/10:30am W 13-20 kts n/a n/a n/a n/a
03/10:00am W 13-21 kts n/a n/a n/a n/a
03/09:30am W 11-19 kts n/a n/a n/a n/a
03/09:00am W 13-19 kts n/a n/a n/a n/a
03/08:30am W 12-15 kts n/a n/a n/a n/a
03/08:00am W 9-13 kts n/a n/a n/a n/a
03/07:30am W 9-12 kts n/a n/a n/a n/a
03/07:00am W 8-13 kts n/a n/a n/a n/a
03/06:30am WNW 7-11 kts n/a n/a n/a n/a
03/06:00am W 7-9 kts n/a n/a n/a n/a
03/05:30am W 9-11 kts n/a n/a n/a n/a
03/05:00am W 10-14 kts n/a n/a n/a n/a
03/04:30am W 9-12 kts n/a n/a n/a n/a
03/04:00am W 9-13 kts n/a n/a n/a n/a
03/03:30am W 7-9 kts n/a n/a n/a n/a
03/03:00am W 7-10 kts n/a n/a n/a n/a
03/02:30am W 9-12 kts n/a n/a n/a n/a
03/02:00am W 11-13 kts n/a n/a n/a n/a
03/01:30am W 9-11 kts n/a n/a n/a n/a
03/01:00am WNW 8-10 kts n/a n/a n/a n/a
03/12:30am WNW 7-10 kts n/a n/a n/a n/a
03/12:00am W 9-12 kts n/a n/a n/a n/a
Time Wind Speed Temp Pressure Rel. Hum Rain
02/11:30pm W 10-14 kts n/a n/a n/a n/a
02/11:00pm W 13-17 kts n/a n/a n/a n/a
02/10:30pm W 13-18 kts n/a n/a n/a n/a
02/10:00pm W 13-17 kts n/a n/a n/a n/a
02/09:30pm W 13-18 kts n/a n/a n/a n/a
02/09:00pm W 12-16 kts n/a n/a n/a n/a
02/08:30pm W 12-17 kts n/a n/a n/a n/a
02/08:00pm W 14-20 kts n/a n/a n/a n/a
02/07:30pm W 17-23 kts n/a n/a n/a n/a
02/07:00pm W 16-27 kts n/a n/a n/a n/a
02/06:30pm WSW 18-30 kts n/a n/a n/a n/a
02/06:01pm W 17-27 kts n/a n/a n/a n/a
02/06:00pm W 17-25 kts n/a n/a n/a n/a
02/05:37pm W 17-29 kts n/a n/a n/a n/a
02/05:30pm W 18-27 kts n/a n/a n/a n/a
02/05:05pm W 17-29 kts n/a n/a n/a n/a
02/05:00pm W 17-22 kts n/a n/a n/a n/a
02/04:30pm W 16-24 kts n/a n/a n/a n/a
02/04:00pm W 17-25 kts n/a n/a n/a n/a
02/03:30pm W 13-22 kts n/a n/a n/a n/a
02/03:00pm W 10-14 kts n/a n/a n/a n/a
02/02:30pm SW 8-14 kts n/a n/a n/a n/a
02/02:00pm SW 8-16 kts n/a n/a n/a n/a
02/01:30pm WSW 9-16 kts n/a n/a n/a n/a
02/01:00pm WSW 13-25 kts n/a n/a n/a n/a
02/12:35pm W 16-26 kts n/a n/a n/a n/a
02/12:30pm W 17-23 kts n/a n/a n/a n/a
02/12:00pm WSW 13-21 kts n/a n/a n/a n/a
02/11:30am W 13-18 kts n/a n/a n/a n/a
02/11:00am W 15-21 kts n/a n/a n/a n/a
02/10:30am WNW 8-17 kts n/a n/a n/a n/a
02/10:00am NW 7-10 kts n/a n/a n/a n/a
02/09:30am NW 6-9 kts n/a n/a n/a n/a
02/09:00am NW 7-11 kts n/a n/a n/a n/a
02/08:30am W 11-17 kts n/a n/a n/a n/a
02/08:00am W 10-15 kts n/a n/a n/a n/a
02/07:30am W 10-13 kts n/a n/a n/a n/a
02/07:00am W 12-16 kts n/a n/a n/a n/a
02/06:30am W 13-17 kts n/a n/a n/a n/a
02/06:00am W 15-19 kts n/a n/a n/a n/a
02/05:30am W 14-19 kts n/a n/a n/a n/a
02/05:00am W 11-15 kts n/a n/a n/a n/a
02/04:30am W 10-14 kts n/a n/a n/a n/a
02/04:00am W 9-12 kts n/a n/a n/a n/a
02/03:30am W 10-13 kts n/a n/a n/a n/a
02/03:00am WNW 9-12 kts n/a n/a n/a n/a
02/02:30am NW 10-15 kts n/a n/a n/a n/a
02/02:00am NW 9-12 kts n/a n/a n/a n/a
02/01:30am NW 7-12 kts n/a n/a n/a n/a
02/01:00am WNW 8-11 kts n/a n/a n/a n/a
02/12:30am WNW 10-13 kts n/a n/a n/a n/a
02/12:00am WNW 9-14 kts n/a n/a n/a n/a